Location: Newark
(43.9494°N, 6.8108°E)
Time: 10:55:35
(UTC+00:00)

Transit 2A - Visible Passes

Search period start: 23 October 2019 00:00
Search period end: 02 November 2019 00:00
Orbit: 600 x 958 km, 66.7° (Epoch: 23 October)

Date Brightness Start Highest point End Pass type
(mag) Time Alt. Az. Time Alt. Az. Time Alt. Az.
23 Oct 6.7 18:39:02 10° SW 18:44:16 51° NW 18:47:44 18° NNE visible
23 Oct 8.8 20:27:20 10° NW 20:28:15 11° NW 20:28:15 11° NW visible
24 Oct 6.1 18:04:42 10° SW 18:10:06 73° WNW 18:14:54 11° NNE visible
24 Oct 8.5 19:51:21 10° WNW 19:54:01 14° NW 19:55:25 13° NNW visible
25 Oct 5.9 17:30:33 10° SSW 17:35:59 79° ESE 17:40:54 10° NE visible
25 Oct 8.3 19:16:03 10° W 19:19:38 19° NW 19:22:28 12° N visible
26 Oct 6.1 16:56:37 10° SSW 17:01:55 54° ESE 17:06:43 10° NE visible
26 Oct 7.9 18:41:03 10° W 18:45:18 25° NW 18:49:16 10° N visible
27 Oct 7.4 18:06:17 10° WSW 18:11:02 33° NW 18:15:25 10° NNE visible
28 Oct 6.9 17:31:43 10° SW 17:36:49 47° NW 17:41:29 10° NNE visible
29 Oct 6.3 16:57:20 10° SW 17:02:39 67° WNW 17:07:29 10° NNE visible
29 Oct 8.4 18:44:19 10° WNW 18:46:37 13° NW 18:48:52 10° N visible
30 Oct 8.3 18:08:54 10° W 18:12:13 17° NW 18:15:23 10° N visible
31 Oct 8.0 17:33:50 10° W 17:37:52 23° NW 17:41:40 10° N visible
01 Nov 7.5 16:59:01 10° WSW 17:03:36 31° NW 17:07:51 10° NNE visible
